General Juan N Alvarez International Airport
MMAA : rendu visible

Aérodrome :











RETROUVEZ-NOUS SUR...

 
LOGIN :

S'inscrire | Disclaimer

   EN    FR    IT 

 









Légende :    VFR   VFR Marginal   IFR   IFR Intensif   IFR Très Intensif
Visi : 
Plafond : 
>= 8 km
>= 3000ft
5 à 8 km
1000 à 3000 ft
1500m à 5 km
500 à 1000 ft
800 à 1500m
200 à 500 ft
< 800m
< 200 ft
Symboles :   Orages  Brouillard  Fortes neiges  Fortes précipitations  Vent > 20 kt






- Altitude de l'aérodrome : 16 ft
- Code IATA : ACA


MMAA - General Juan N Alvarez International

DERNIER METAR :
  • 271243Z 00000KT 5SM OVC300 23/18 A2988 RMK 8/007 HZY BINOVC

METARs EXPIRÉS :
  • 271200Z RTD 00000KT 5SM BKN300 22/19 A2987 RMK SLP112 5//// 903 8/002 HZY RTS

TAF TAF MMAA
Valide du 27 à 12h jusqu'au 28 à 18h UTC


271038Z 2712/2818 03005KT 5SM HZ TX30/2718Z TN23/2712Z BKN300
FM271600 23010KT 6SM HZ SCT300
FM280200 03005KT 5SM HZ SCT015 SCT300
FM281600 23010KT 6SM HZ SKC
FIR MMFR / Amérique du Nord



MET'MAP, la Météo Aéronautique d'un coup d'oeil ! - Copyright ORBIFLY Décembre 2007 - Disclaimer

ORBIFLY MET'MAP TEAM :

Programmation & Développement : Alexandra Zaïnal
Sur une idée originale de : Baudouin d'Aumeries
Assistance à la programmation : Marc-Olivier Méhu
Soutien technique & logistique : Manuel Goepfert

Contact : metmap@orbifly.com




SOURCES & CREDITS :

   NOAA       Earth
Advisory